IRIDIUM 59 [-]

Last updated on March 12, 2019, 3:11 a.m. UTC

1 25275U 98019D   19070.42134782  .39186907 -16954-5  23435-3 0  9990
2 25275  86.4963  21.8254 0038973 104.7344  44.4092 16.51404550 96889

Satellite is not in orbit.